Location: ??????
(42.0089°N, 44.3281°E)
Time: 15:37:51
(UTC+00:00)

Lacrosse 4 Rocket - Pass Details

Date: 24 October 2021
Orbit: 537 x 619 km, 68.0° (Epoch: 07 December)

Event Time Altitude Azimuth Distance (km) Brightness Sun altitude
Rises 15:53:03 0° 328° (NNW) 2,820 5.4 -20.2°
Reaches altitude 10° 15:55:17 10° 325° (NW) 1,928 4.6 -20.7°
Maximum altitude 15:59:35 64° 245° (WSW) 670 1.9 -21.5°
Enters shadow 16:02:13 23° 169° (S) 1,302 3.0 -21.9°
